Kalaeloa, HI

8:54 AM HST on June 26, 2017 (GMT -1000)
Kalaeloa (John Rodgers Field)

Weather History for PHJR - May, 2013

Change the Weather History Date:

Tuesday, May 14, 2013

  Actual Average (PHHI) Record (PHHI)
Temperature  
Mean Temperature 78 °F -  
Max Temperature 84 °F 76 °F 84 °F (2002)
Min Temperature 71 °F 63 °F 57 °F (2012)
Cooling Degree Days 12    
Growing Degree Days 28 (Base 50)    
Moisture  
Dew Point 66 °F    
Average Humidity 70    
Maximum Humidity 90    
Minimum Humidity 53    
Precipitation  
Precipitation 0.00 in - - ()
Sea Level Pressure  
Sea Level Pressure 30.11 in    
Wind  
Wind Speed 6 mph (ENE)    
Max Wind Speed 14 mph    
Max Gust Speed 23 mph    
Visibility 10 miles    
Events      
Averages and records for this station are not official NWS values.
T = Trace of Precipitation, MM = Missing Value Source: NWS Daily Summary

Daily Weather History Graph

Daily Weather History Graph

Search for Another Location

Airport or City:

Trip Planner

Search our weather history database for the weather conditions in past years. The results will help you decide how hot, cold, wet, or windy it might be!

Date:

Astronomy

May. 14, 2013 Rise Set
Actual Time 5:54 AM HST 7:03 PM HST
Civil Twilight 5:30 AM HST 7:27 PM HST
Nautical Twilight 5:02 AM HST 7:55 PM HST
Astronomical Twilight 4:33 AM HST 8:24 PM HST
Moon 9:42 AM HST (5/14) 11:02 PM HST (5/14)
Length of Visible Light 13h 56m
Length of Day
13h 08m
Waxing Crescent, 20% of the Moon is Illuminated
May 14
Waxing Crescent
May 17
First Quarter
May 24
Full
May 31
Last Quarter
Jun 8
New

Hourly Weather History & Observations

Time (HST) Temp. Heat Index Dew Point Humidity Pressure Visibility Wind Dir Wind Speed Gust Speed Precip Events Conditions
12:53 AM 73.0 °F - 66.9 °F 81% 30.11 in 10.0 mi ENE 3.5 mph - N/A   Overcast
1:53 AM 73.0 °F - 66.9 °F 81% 30.09 in 10.0 mi Calm Calm - N/A   Scattered Clouds
2:53 AM 72.0 °F - 66.9 °F 84% 30.09 in 10.0 mi ENE 3.5 mph - N/A   Mostly Cloudy
3:53 AM 71.1 °F - 66.9 °F 87% 30.08 in 10.0 mi ENE 4.6 mph - N/A   Partly Cloudy
4:53 AM 72.0 °F - 66.9 °F 84% 30.08 in 10.0 mi ENE 3.5 mph - N/A   Partly Cloudy
5:53 AM 71.1 °F - 68.0 °F 90% 30.09 in 10.0 mi ENE 4.6 mph - N/A   Mostly Cloudy
6:53 AM 72.0 °F - 66.9 °F 84% 30.10 in 10.0 mi ENE 3.5 mph - N/A   Scattered Clouds
7:53 AM 75.9 °F - 66.9 °F 74% 30.11 in 10.0 mi ENE 9.2 mph 16.1 mph N/A   Clear
8:53 AM 79.0 °F - 66.9 °F 66% 30.12 in 10.0 mi ENE 8.1 mph 16.1 mph N/A   Partly Cloudy
9:26 AM 80.6 °F 82.7 °F 66.2 °F 61% 30.10 in 10.0 mi ENE 8.1 mph 17.3 mph N/A   Scattered Clouds
9:53 AM 81.0 °F 83.3 °F 66.9 °F 62% 30.12 in 10.0 mi East 9.2 mph 17.3 mph N/A   Scattered Clouds
10:53 AM 82.0 °F 83.8 °F 64.9 °F 56% 30.12 in 10.0 mi East 9.2 mph 20.7 mph N/A   Mostly Cloudy
11:53 AM 82.9 °F 84.6 °F 64.9 °F 54% 30.11 in 10.0 mi East 13.8 mph 20.7 mph N/A   Scattered Clouds
12:53 PM 84.0 °F 85.8 °F 64.9 °F 53% 30.10 in 10.0 mi East 10.4 mph 20.7 mph N/A   Partly Cloudy
1:53 PM 82.0 °F 84.1 °F 66.0 °F 58% 30.09 in 10.0 mi ENE 10.4 mph 21.9 mph N/A   Mostly Cloudy
2:53 PM 82.9 °F 85.0 °F 66.0 °F 56% 30.09 in 10.0 mi NE 8.1 mph - N/A   Scattered Clouds
3:53 PM 82.0 °F 83.8 °F 64.9 °F 56% 30.09 in 10.0 mi Variable 6.9 mph 23.0 mph N/A   Scattered Clouds
4:53 PM 80.1 °F 81.7 °F 64.0 °F 58% 30.09 in 10.0 mi ENE 10.4 mph 23.0 mph N/A   Partly Cloudy
5:53 PM 79.0 °F - 64.0 °F 60% 30.09 in 10.0 mi ENE 6.9 mph 20.7 mph N/A   Clear
6:53 PM 75.9 °F - 63.0 °F 64% 30.12 in 10.0 mi ENE 8.1 mph - N/A   Clear
7:53 PM 73.9 °F - 64.0 °F 71% 30.13 in 10.0 mi ENE 6.9 mph - N/A   Clear
8:53 PM 73.9 °F - 64.9 °F 73% 30.14 in 10.0 mi ENE 5.8 mph - N/A   Clear
9:53 PM 73.0 °F - 64.9 °F 76% 30.14 in 10.0 mi Variable 5.8 mph - N/A   Clear
10:53 PM 73.0 °F - 64.9 °F 76% 30.15 in 10.0 mi ENE 4.6 mph - N/A   Clear
11:53 PM 73.0 °F - 64.9 °F 76% 30.15 in 10.0 mi ENE 4.6 mph - N/A   Clear